Year,Month,Day,Hour,Minute,Value (Times are PST for temperature in C)
2022,04,25,00,00,7.30
2022,04,25,00,01,7.30
2022,04,25,00,02,7.30
2022,04,25,00,03,7.30
2022,04,25,00,04,7.30
2022,04,25,00,05,7.30
2022,04,25,00,06,7.30
2022,04,25,00,07,7.30
2022,04,25,00,08,7.30
2022,04,25,00,09,7.30
2022,04,25,00,10,7.30
2022,04,25,00,11,7.30
2022,04,25,00,12,7.30
2022,04,25,00,13,7.30
2022,04,25,00,14,7.30
2022,04,25,00,15,7.30
2022,04,25,00,16,7.30
2022,04,25,00,17,7.30
2022,04,25,00,18,7.30
2022,04,25,00,19,7.30
2022,04,25,00,20,7.30
2022,04,25,00,21,7.30
2022,04,25,00,22,7.30
2022,04,25,00,23,7.30
2022,04,25,00,24,7.30
2022,04,25,00,25,7.30
2022,04,25,00,26,7.30
2022,04,25,00,27,7.30
2022,04,25,00,28,7.30
2022,04,25,00,29,7.30
2022,04,25,00,30,7.30
2022,04,25,00,31,7.30
2022,04,25,00,32,7.30
2022,04,25,00,33,7.30
2022,04,25,00,34,7.30
2022,04,25,00,35,7.30
2022,04,25,00,36,7.30
2022,04,25,00,37,7.30
2022,04,25,00,38,7.30
2022,04,25,00,39,7.30
2022,04,25,00,40,7.30
2022,04,25,00,41,7.30
2022,04,25,00,42,7.30
2022,04,25,00,43,7.30
2022,04,25,00,44,7.30
2022,04,25,00,45,7.30
2022,04,25,00,46,7.30
2022,04,25,00,47,7.30
2022,04,25,00,48,7.30
2022,04,25,00,49,7.30
2022,04,25,00,50,7.30
2022,04,25,00,51,7.30
2022,04,25,00,52,7.30
2022,04,25,00,53,7.30
2022,04,25,00,54,7.30
2022,04,25,00,55,7.30
2022,04,25,00,56,7.30
2022,04,25,00,57,7.30
2022,04,25,00,58,7.30
2022,04,25,00,59,7.30
2022,04,25,01,00,7.30
2022,04,25,01,01,7.30
2022,04,25,01,02,7.30
2022,04,25,01,03,7.30
2022,04,25,01,04,7.30
2022,04,25,01,05,7.30
2022,04,25,01,06,7.30
2022,04,25,01,07,7.30
2022,04,25,01,08,7.30
2022,04,25,01,09,7.30
2022,04,25,01,10,7.30
2022,04,25,01,11,7.30
2022,04,25,01,12,7.30
2022,04,25,01,13,7.30
2022,04,25,01,14,7.30
2022,04,25,01,15,7.30
2022,04,25,01,16,7.30
2022,04,25,01,17,7.30
2022,04,25,01,18,7.30
2022,04,25,01,19,7.20
2022,04,25,01,20,7.20
2022,04,25,01,21,7.20
2022,04,25,01,22,7.20
2022,04,25,01,23,7.20
2022,04,25,01,24,7.20
2022,04,25,01,25,7.20
2022,04,25,01,26,7.20
2022,04,25,01,27,7.20
2022,04,25,01,28,7.20
2022,04,25,01,29,7.20
2022,04,25,01,30,7.20
2022,04,25,01,31,7.20
2022,04,25,01,32,7.20
2022,04,25,01,33,7.20
2022,04,25,01,34,7.20
2022,04,25,01,35,7.20
2022,04,25,01,36,7.20
2022,04,25,01,37,7.20
2022,04,25,01,38,7.20
2022,04,25,01,39,7.20
2022,04,25,01,40,7.20
2022,04,25,01,41,7.20
2022,04,25,01,42,7.20
2022,04,25,01,43,7.20
2022,04,25,01,44,7.20
2022,04,25,01,45,7.20
2022,04,25,01,46,7.20
2022,04,25,01,47,7.20
2022,04,25,01,48,7.20
2022,04,25,01,49,7.20
2022,04,25,01,50,7.20
2022,04,25,01,51,7.20
2022,04,25,01,52,7.10
2022,04,25,01,53,7.10
2022,04,25,01,54,7.10
2022,04,25,01,55,7.10
2022,04,25,01,56,7.10
2022,04,25,01,57,7.00
2022,04,25,01,58,7.00
2022,04,25,01,59,7.00
2022,04,25,02,00,7.00
2022,04,25,02,01,6.90
2022,04,25,02,02,6.90
2022,04,25,02,03,6.90
2022,04,25,02,04,6.90
2022,04,25,02,05,6.90
2022,04,25,02,06,6.90
2022,04,25,02,07,6.90
2022,04,25,02,08,6.90
2022,04,25,02,09,6.80
2022,04,25,02,10,6.80
2022,04,25,02,11,6.80
2022,04,25,02,12,6.80
2022,04,25,02,13,6.80
2022,04,25,02,14,6.70
2022,04,25,02,15,6.70
2022,04,25,02,16,6.70
2022,04,25,02,17,6.70
2022,04,25,02,18,6.60
2022,04,25,02,19,6.60
2022,04,25,02,20,6.60
2022,04,25,02,21,6.60
2022,04,25,02,22,6.60
2022,04,25,02,23,6.60
2022,04,25,02,24,6.60
2022,04,25,02,25,6.60
2022,04,25,02,26,6.60
2022,04,25,02,27,6.50
2022,04,25,02,28,6.50
2022,04,25,02,29,6.50
2022,04,25,02,30,6.40
2022,04,25,02,31,6.40
2022,04,25,02,32,6.40
2022,04,25,02,33,6.40
2022,04,25,02,34,6.40
2022,04,25,02,35,6.40
2022,04,25,02,36,6.30
2022,04,25,02,37,6.30
2022,04,25,02,38,6.30
2022,04,25,02,39,6.30
2022,04,25,02,40,6.30
2022,04,25,02,41,6.30
2022,04,25,02,42,6.30
2022,04,25,02,43,6.20
2022,04,25,02,44,6.20
2022,04,25,02,45,6.20
2022,04,25,02,46,6.20
2022,04,25,02,47,6.20
2022,04,25,02,48,6.20
2022,04,25,02,49,6.20
2022,04,25,02,50,6.20
2022,04,25,02,51,6.20
2022,04,25,02,52,6.20
2022,04,25,02,53,6.20
2022,04,25,02,54,6.20
2022,04,25,02,55,6.20
2022,04,25,02,56,6.20
2022,04,25,02,57,6.20
2022,04,25,02,58,6.30
2022,04,25,02,59,6.30
2022,04,25,03,00,6.30
2022,04,25,03,01,6.30
2022,04,25,03,02,6.30
2022,04,25,03,03,6.30
2022,04,25,03,04,6.30
2022,04,25,03,05,6.30
2022,04,25,03,06,6.30
2022,04,25,03,07,6.30
2022,04,25,03,08,6.30
2022,04,25,03,09,6.30
2022,04,25,03,10,6.30
2022,04,25,03,11,6.30
2022,04,25,03,12,6.30
2022,04,25,03,13,6.30
2022,04,25,03,14,6.30
2022,04,25,03,15,6.30
2022,04,25,03,16,6.20
2022,04,25,03,17,6.20
2022,04,25,03,18,6.20
2022,04,25,03,19,6.20
2022,04,25,03,20,6.20
2022,04,25,03,21,6.20
2022,04,25,03,22,6.20
2022,04,25,03,23,6.20
2022,04,25,03,24,6.20
2022,04,25,03,25,6.10
2022,04,25,03,26,6.10
2022,04,25,03,27,6.10
2022,04,25,03,28,6.10
2022,04,25,03,29,6.10
2022,04,25,03,30,6.10
2022,04,25,03,31,6.10
2022,04,25,03,32,6.10
2022,04,25,03,33,6.10
2022,04,25,03,34,6.10
2022,04,25,03,35,6.10
2022,04,25,03,36,6.10
2022,04,25,03,37,6.10
2022,04,25,03,38,6.00
2022,04,25,03,39,6.00
2022,04,25,03,40,6.00
2022,04,25,03,41,5.90
2022,04,25,03,42,5.90
2022,04,25,03,43,5.90
2022,04,25,03,44,5.90
2022,04,25,03,45,5.90
2022,04,25,03,46,5.80
2022,04,25,03,47,5.80
2022,04,25,03,48,5.80
2022,04,25,03,49,5.80
2022,04,25,03,50,5.80
2022,04,25,03,51,5.80
2022,04,25,03,52,5.80
2022,04,25,03,53,5.80
2022,04,25,03,54,5.80
2022,04,25,03,55,5.70
2022,04,25,03,56,5.70
2022,04,25,03,57,5.70
2022,04,25,03,58,5.70
2022,04,25,03,59,5.70
2022,04,25,04,00,5.70
2022,04,25,04,01,5.70
2022,04,25,04,02,5.70
2022,04,25,04,03,5.60
2022,04,25,04,04,5.60
2022,04,25,04,05,5.60
2022,04,25,04,06,5.60
2022,04,25,04,07,5.60
2022,04,25,04,08,5.60
2022,04,25,04,09,5.60
2022,04,25,04,10,5.60
2022,04,25,04,11,5.60
2022,04,25,04,12,5.60
2022,04,25,04,13,5.60
2022,04,25,04,14,5.60
2022,04,25,04,15,5.60
2022,04,25,04,16,5.50
2022,04,25,04,17,5.50
2022,04,25,04,18,5.50
2022,04,25,04,19,5.40
2022,04,25,04,20,5.40
2022,04,25,04,21,5.40
2022,04,25,04,22,5.40
2022,04,25,04,23,5.30
2022,04,25,04,24,5.30
2022,04,25,04,25,5.30
2022,04,25,04,26,5.30
2022,04,25,04,27,5.30
2022,04,25,04,28,5.20
2022,04,25,04,29,5.20
2022,04,25,04,30,5.20
2022,04,25,04,31,5.20
2022,04,25,04,32,5.20
2022,04,25,04,33,5.20
2022,04,25,04,34,5.20
2022,04,25,04,35,5.30
2022,04,25,04,36,5.20
2022,04,25,04,37,5.20
2022,04,25,04,38,5.20
2022,04,25,04,39,5.20
2022,04,25,04,40,5.20
2022,04,25,04,41,5.20
2022,04,25,04,42,5.20
2022,04,25,04,43,5.20
2022,04,25,04,44,5.20
2022,04,25,04,45,5.10
2022,04,25,04,46,5.10
2022,04,25,04,47,5.10
2022,04,25,04,48,5.10
2022,04,25,04,49,5.10
2022,04,25,04,50,5.10
2022,04,25,04,51,5.10
2022,04,25,04,52,5.10
2022,04,25,04,53,5.00
2022,04,25,04,54,5.00
2022,04,25,04,55,5.00
2022,04,25,04,56,4.90
2022,04,25,04,57,4.90
2022,04,25,04,58,4.90
2022,04,25,04,59,4.90
2022,04,25,05,00,4.90
2022,04,25,05,01,4.90
2022,04,25,05,02,4.90
2022,04,25,05,03,4.90
2022,04,25,05,04,4.90
2022,04,25,05,05,4.90
2022,04,25,05,06,4.90
2022,04,25,05,07,4.80
2022,04,25,05,08,4.80
2022,04,25,05,09,4.80
2022,04,25,05,10,4.80
2022,04,25,05,11,4.80
2022,04,25,05,12,4.70
2022,04,25,05,13,4.70
2022,04,25,05,14,4.70
2022,04,25,05,15,4.70
2022,04,25,05,16,4.70
2022,04,25,05,17,4.70
2022,04,25,05,18,4.60
2022,04,25,05,19,4.60
2022,04,25,05,20,4.60
2022,04,25,05,21,4.60
2022,04,25,05,22,4.60
2022,04,25,05,23,4.60
2022,04,25,05,24,4.50
2022,04,25,05,25,4.50
2022,04,25,05,26,4.50
2022,04,25,05,27,4.40
2022,04,25,05,28,4.40
2022,04,25,05,29,4.40
2022,04,25,05,30,4.40
2022,04,25,05,31,4.30
2022,04,25,05,32,4.30
2022,04,25,05,33,4.30
2022,04,25,05,34,4.30
2022,04,25,05,35,4.30
2022,04,25,05,36,4.20
2022,04,25,05,37,4.20
2022,04,25,05,38,4.20
2022,04,25,05,39,4.20
2022,04,25,05,40,4.10
2022,04,25,05,41,4.10
2022,04,25,05,42,4.10
2022,04,25,05,43,4.10
2022,04,25,05,44,4.10
2022,04,25,05,45,4.10
2022,04,25,05,46,4.10
2022,04,25,05,47,4.10
2022,04,25,05,48,4.10
2022,04,25,05,49,4.10
2022,04,25,05,50,4.10
2022,04,25,05,51,4.10
2022,04,25,05,52,4.10
2022,04,25,05,53,4.10
2022,04,25,05,54,4.10
2022,04,25,05,55,4.10
2022,04,25,05,56,4.10
2022,04,25,05,57,4.10
2022,04,25,05,58,4.10
2022,04,25,05,59,4.10
2022,04,25,06,00,4.10
2022,04,25,06,01,4.10
2022,04,25,06,02,4.10
2022,04,25,06,03,4.10
2022,04,25,06,04,4.10
2022,04,25,06,05,4.10
2022,04,25,06,06,4.10
2022,04,25,06,07,4.20
2022,04,25,06,08,4.20
2022,04,25,06,09,4.20
2022,04,25,06,10,4.20
2022,04,25,06,11,4.20
2022,04,25,06,12,4.20
2022,04,25,06,13,4.20
2022,04,25,06,14,4.20
2022,04,25,06,15,4.20
2022,04,25,06,16,4.20
2022,04,25,06,17,4.20
2022,04,25,06,18,4.20
2022,04,25,06,19,4.20
2022,04,25,06,20,4.20
2022,04,25,06,21,4.20
2022,04,25,06,22,4.20
2022,04,25,06,23,4.30
2022,04,25,06,24,4.30
2022,04,25,06,25,4.30
2022,04,25,06,26,4.30
2022,04,25,06,27,4.30
2022,04,25,06,28,4.30
2022,04,25,06,29,4.30
2022,04,25,06,30,4.30
2022,04,25,06,31,4.30
2022,04,25,06,32,4.30
2022,04,25,06,33,4.30
2022,04,25,06,34,4.30
2022,04,25,06,35,4.30
2022,04,25,06,36,4.40
2022,04,25,06,37,4.40
2022,04,25,06,38,4.40
2022,04,25,06,39,4.40
2022,04,25,06,40,4.40
2022,04,25,06,41,4.40
2022,04,25,06,42,4.40
2022,04,25,06,43,4.40
2022,04,25,06,44,4.40
2022,04,25,06,45,4.40
2022,04,25,06,46,4.40
2022,04,25,06,47,4.40
2022,04,25,06,48,4.40
2022,04,25,06,49,4.40
2022,04,25,06,50,4.40
2022,04,25,06,51,4.40
2022,04,25,06,52,4.40
2022,04,25,06,53,4.40
2022,04,25,06,54,4.40
2022,04,25,06,55,4.40
2022,04,25,06,56,4.40
2022,04,25,06,57,4.50
2022,04,25,06,58,4.50
2022,04,25,06,59,4.50
2022,04,25,07,00,4.50
2022,04,25,07,01,4.40
2022,04,25,07,02,4.50
2022,04,25,07,03,4.50
2022,04,25,07,04,4.50
2022,04,25,07,05,4.50
2022,04,25,07,06,4.50
2022,04,25,07,07,4.50
2022,04,25,07,08,4.50
2022,04,25,07,09,4.50
2022,04,25,07,10,4.50
2022,04,25,07,11,4.50
2022,04,25,07,12,4.50
2022,04,25,07,13,4.50
2022,04,25,07,14,4.50
2022,04,25,07,15,4.50
2022,04,25,07,16,4.50
2022,04,25,07,17,4.50
2022,04,25,07,18,4.50
2022,04,25,07,19,4.50
2022,04,25,07,20,4.50
2022,04,25,07,21,4.50
2022,04,25,07,22,4.60
2022,04,25,07,23,4.60
2022,04,25,07,24,4.60
2022,04,25,07,25,4.60
2022,04,25,07,26,4.60
2022,04,25,07,27,4.60
2022,04,25,07,28,4.60
2022,04,25,07,29,4.60
2022,04,25,07,30,4.60
2022,04,25,07,31,4.60
2022,04,25,07,32,4.70
2022,04,25,07,33,4.70
2022,04,25,07,34,4.70
2022,04,25,07,35,4.70
2022,04,25,07,36,4.70
2022,04,25,07,37,4.70
2022,04,25,07,38,4.70
2022,04,25,07,39,4.80
2022,04,25,07,40,4.80
2022,04,25,07,41,4.80
2022,04,25,07,42,4.80
2022,04,25,07,43,4.80
2022,04,25,07,44,4.80
2022,04,25,07,45,4.90
2022,04,25,07,46,4.90
2022,04,25,07,47,4.90
2022,04,25,07,48,4.90
2022,04,25,07,49,4.90
2022,04,25,07,50,4.90
2022,04,25,07,51,4.90
2022,04,25,07,52,4.90
2022,04,25,07,53,4.90
2022,04,25,07,54,4.90
2022,04,25,07,55,4.90
2022,04,25,07,56,4.90
2022,04,25,07,57,4.90
2022,04,25,07,58,4.90
2022,04,25,07,59,4.90
2022,04,25,08,00,4.90
2022,04,25,08,01,4.90
2022,04,25,08,02,4.90
2022,04,25,08,03,4.90
2022,04,25,08,04,5.00
2022,04,25,08,05,5.00
2022,04,25,08,06,5.00
2022,04,25,08,07,5.00
2022,04,25,08,08,5.00
2022,04,25,08,09,5.10
2022,04,25,08,10,5.10
2022,04,25,08,11,5.10
2022,04,25,08,12,5.10
2022,04,25,08,13,5.10
2022,04,25,08,14,5.10
2022,04,25,08,15,5.10
2022,04,25,08,16,5.10
2022,04,25,08,17,5.20
2022,04,25,08,18,5.20
2022,04,25,08,19,5.20
2022,04,25,08,20,5.30
2022,04,25,08,21,5.30
2022,04,25,08,22,5.30
2022,04,25,08,23,5.30
2022,04,25,08,24,5.40
2022,04,25,08,25,5.40
2022,04,25,08,26,5.50
2022,04,25,08,27,5.60
2022,04,25,08,28,5.60
2022,04,25,08,29,5.70
2022,04,25,08,30,5.70
2022,04,25,08,31,5.80
2022,04,25,08,32,5.90
2022,04,25,08,33,6.00
2022,04,25,08,34,6.00
2022,04,25,08,35,6.00
2022,04,25,08,36,5.90
2022,04,25,08,37,6.00
2022,04,25,08,38,6.00
2022,04,25,08,39,6.10
2022,04,25,08,40,6.10
2022,04,25,08,41,6.20
2022,04,25,08,42,6.30
2022,04,25,08,43,6.40
2022,04,25,08,44,6.50
2022,04,25,08,45,6.60
2022,04,25,08,46,6.60
2022,04,25,08,47,6.70
2022,04,25,08,48,6.70
2022,04,25,08,49,6.70
2022,04,25,08,50,6.60
2022,04,25,08,51,6.70
2022,04,25,08,52,6.70
2022,04,25,08,53,6.70
2022,04,25,08,54,6.70
2022,04,25,08,55,6.70
2022,04,25,08,56,6.80
2022,04,25,08,57,6.80
2022,04,25,08,58,6.80
2022,04,25,08,59,6.70
2022,04,25,09,00,6.70
2022,04,25,09,01,6.70
2022,04,25,09,02,6.80
2022,04,25,09,03,6.80
2022,04,25,09,04,6.80
2022,04,25,09,05,6.80
2022,04,25,09,06,6.90
2022,04,25,09,07,6.90
2022,04,25,09,08,6.90
2022,04,25,09,09,6.90
2022,04,25,09,10,7.00
2022,04,25,09,11,7.00
2022,04,25,09,12,7.00
2022,04,25,09,13,7.10
2022,04,25,09,14,7.10
2022,04,25,09,15,7.10
2022,04,25,09,16,7.10
2022,04,25,09,17,7.10
2022,04,25,09,18,7.10
2022,04,25,09,19,7.10
2022,04,25,09,20,7.20
2022,04,25,09,21,7.20
2022,04,25,09,22,7.30
2022,04,25,09,23,7.30
2022,04,25,09,24,7.40
2022,04,25,09,25,7.40
2022,04,25,09,26,7.40
2022,04,25,09,27,7.40
2022,04,25,09,28,7.40
2022,04,25,09,29,7.50
2022,04,25,09,30,7.50
2022,04,25,09,31,7.60
2022,04,25,09,32,7.70
2022,04,25,09,33,7.70
2022,04,25,09,34,7.70
2022,04,25,09,35,7.70
2022,04,25,09,36,7.70
2022,04,25,09,37,7.70
2022,04,25,09,38,7.80
2022,04,25,09,39,7.80
2022,04,25,09,40,7.80
2022,04,25,09,41,7.90
2022,04,25,09,42,7.90
2022,04,25,09,43,8.00
2022,04,25,09,44,8.10
2022,04,25,09,45,8.10
2022,04,25,09,46,8.20
2022,04,25,09,47,8.20
2022,04,25,09,48,8.20
2022,04,25,09,49,8.30
2022,04,25,09,50,8.30
2022,04,25,09,51,8.40
2022,04,25,09,52,8.50
2022,04,25,09,53,8.60
2022,04,25,09,54,8.60
2022,04,25,09,55,8.80
2022,04,25,09,56,8.70
2022,04,25,09,57,8.80
2022,04,25,09,58,8.80
2022,04,25,09,59,8.80
2022,04,25,10,00,8.80
2022,04,25,10,01,8.90
2022,04,25,10,02,8.90
2022,04,25,10,03,8.90
2022,04,25,10,04,9.00
2022,04,25,10,05,9.00
2022,04,25,10,06,9.10
2022,04,25,10,07,9.10
2022,04,25,10,08,9.10
2022,04,25,10,09,9.10
2022,04,25,10,10,9.10
2022,04,25,10,11,9.00
2022,04,25,10,12,9.00
2022,04,25,10,13,9.00
2022,04,25,10,14,9.00
2022,04,25,10,15,9.10
2022,04,25,10,16,9.10
2022,04,25,10,17,9.10
2022,04,25,10,18,9.10
2022,04,25,10,19,9.00
2022,04,25,10,20,9.10
2022,04,25,10,21,9.10
2022,04,25,10,22,9.20
2022,04,25,10,23,9.30
2022,04,25,10,24,9.40
2022,04,25,10,25,9.50
2022,04,25,10,26,9.60
2022,04,25,10,27,9.60
2022,04,25,10,28,9.60
2022,04,25,10,29,9.70
2022,04,25,10,30,9.70
2022,04,25,10,31,9.70
2022,04,25,10,32,9.70
2022,04,25,10,33,9.70
2022,04,25,10,34,9.70
2022,04,25,10,35,9.70
2022,04,25,10,36,9.70
2022,04,25,10,37,9.70
2022,04,25,10,38,9.60
2022,04,25,10,39,9.50
2022,04,25,10,40,9.40
2022,04,25,10,41,9.40
2022,04,25,10,42,9.40
2022,04,25,10,43,9.40
2022,04,25,10,44,9.40
2022,04,25,10,45,9.30
2022,04,25,10,46,9.30
2022,04,25,10,47,9.20
2022,04,25,10,48,9.20
2022,04,25,10,49,9.20
2022,04,25,10,50,9.20
2022,04,25,10,51,9.20
2022,04,25,10,52,9.30
2022,04,25,10,53,9.50
2022,04,25,10,54,9.50
2022,04,25,10,55,9.50
2022,04,25,10,56,9.40
2022,04,25,10,57,9.40
2022,04,25,10,58,9.40
2022,04,25,10,59,9.40
2022,04,25,11,00,9.60
2022,04,25,11,01,9.70
2022,04,25,11,02,9.80
2022,04,25,11,03,9.70
2022,04,25,11,04,9.80
2022,04,25,11,05,9.90
2022,04,25,11,06,10.00
2022,04,25,11,07,10.10
2022,04,25,11,08,10.10
2022,04,25,11,09,10.20
2022,04,25,11,10,10.20
2022,04,25,11,11,10.20
2022,04,25,11,12,10.20
2022,04,25,11,13,10.10
2022,04,25,11,14,10.00
2022,04,25,11,15,10.00
2022,04,25,11,16,9.90
2022,04,25,11,17,9.90
2022,04,25,11,18,9.80
2022,04,25,11,19,9.80
2022,04,25,11,20,9.80
2022,04,25,11,21,9.80
2022,04,25,11,22,9.80
2022,04,25,11,23,9.80
2022,04,25,11,24,9.80
2022,04,25,11,25,9.80
2022,04,25,11,26,9.80
2022,04,25,11,27,9.80
2022,04,25,11,28,9.80
2022,04,25,11,29,9.80
2022,04,25,11,30,9.80
2022,04,25,11,31,9.80
2022,04,25,11,32,9.80
2022,04,25,11,33,9.70
2022,04,25,11,34,9.70
2022,04,25,11,35,9.70
2022,04,25,11,36,9.70
2022,04,25,11,37,9.70
2022,04,25,11,38,9.80
2022,04,25,11,39,9.80
2022,04,25,11,40,9.90
2022,04,25,11,41,9.90
2022,04,25,11,42,9.80
2022,04,25,11,43,9.80
2022,04,25,11,44,9.80
2022,04,25,11,45,9.80
2022,04,25,11,46,9.80
2022,04,25,11,47,9.80
2022,04,25,11,48,9.80
2022,04,25,11,49,9.80
2022,04,25,11,50,9.80
2022,04,25,11,51,9.80
2022,04,25,11,52,9.80
2022,04,25,11,53,9.90
2022,04,25,11,54,9.90
2022,04,25,11,55,9.90
2022,04,25,11,56,9.90
2022,04,25,11,57,9.90
2022,04,25,11,58,10.00
2022,04,25,11,59,10.00
2022,04,25,12,00,9.90
2022,04,25,12,01,9.90
2022,04,25,12,02,9.80
2022,04,25,12,03,9.80
2022,04,25,12,04,9.80
2022,04,25,12,05,9.70
2022,04,25,12,06,9.50
2022,04,25,12,07,9.30
2022,04,25,12,08,9.30
2022,04,25,12,09,9.30
2022,04,25,12,10,9.30
2022,04,25,12,11,9.30
2022,04,25,12,12,9.30
2022,04,25,12,13,9.30
2022,04,25,12,14,9.30
2022,04,25,12,15,9.20
2022,04,25,12,16,9.20
2022,04,25,12,17,9.20
2022,04,25,12,18,9.10
2022,04,25,12,19,9.10
2022,04,25,12,20,9.00
2022,04,25,12,21,8.90
2022,04,25,12,22,8.90
2022,04,25,12,23,8.90
2022,04,25,12,24,8.80
2022,04,25,12,25,8.80
2022,04,25,12,26,8.80
2022,04,25,12,27,8.80
2022,04,25,12,28,8.70
2022,04,25,12,29,8.70
2022,04,25,12,30,8.70
2022,04,25,12,31,8.70
2022,04,25,12,32,8.70
2022,04,25,12,33,8.70
2022,04,25,12,34,8.60
2022,04,25,12,35,8.60
2022,04,25,12,36,8.60
2022,04,25,12,37,8.70
2022,04,25,12,38,8.70
2022,04,25,12,39,8.80
2022,04,25,12,40,8.90
2022,04,25,12,41,8.90
2022,04,25,12,42,8.80
2022,04,25,12,43,8.90
2022,04,25,12,44,9.00
2022,04,25,12,45,9.10
2022,04,25,12,46,9.20
2022,04,25,12,47,9.20
2022,04,25,12,48,9.20
2022,04,25,12,49,9.10
2022,04,25,12,50,9.20
2022,04,25,12,51,9.30
2022,04,25,12,52,9.40
2022,04,25,12,53,9.50
2022,04,25,12,54,9.50
2022,04,25,12,55,9.50
2022,04,25,12,56,9.60
2022,04,25,12,57,9.70
2022,04,25,12,58,9.70
2022,04,25,12,59,9.80
2022,04,25,13,00,9.80
2022,04,25,13,01,9.90
2022,04,25,13,02,10.00
2022,04,25,13,03,10.10
2022,04,25,13,04,10.20
2022,04,25,13,05,10.20
2022,04,25,13,06,10.30
2022,04,25,13,07,10.40
2022,04,25,13,08,10.60
2022,04,25,13,09,10.70
2022,04,25,13,10,10.80
2022,04,25,13,11,10.90
2022,04,25,13,12,11.00
2022,04,25,13,13,11.10
2022,04,25,13,14,11.20
2022,04,25,13,15,11.30
2022,04,25,13,16,11.40
2022,04,25,13,17,11.50
2022,04,25,13,18,11.60
2022,04,25,13,19,11.70
2022,04,25,13,20,11.80
2022,04,25,13,21,11.90
2022,04,25,13,22,11.80
2022,04,25,13,23,11.80
2022,04,25,13,24,11.80
2022,04,25,13,25,11.80
2022,04,25,13,26,11.80
2022,04,25,13,27,11.80
2022,04,25,13,28,11.90
2022,04,25,13,29,12.00
2022,04,25,13,30,12.10
2022,04,25,13,31,12.20
2022,04,25,13,32,12.20
2022,04,25,13,33,12.20
2022,04,25,13,34,12.20
2022,04,25,13,35,12.20
2022,04,25,13,36,12.20
2022,04,25,13,37,12.30
2022,04,25,13,38,12.30
2022,04,25,13,39,12.40
2022,04,25,13,40,12.40
2022,04,25,13,41,12.50
2022,04,25,13,42,12.60
2022,04,25,13,43,12.70
2022,04,25,13,44,12.70
2022,04,25,13,45,12.70
2022,04,25,13,46,12.70
2022,04,25,13,47,12.70
2022,04,25,13,48,12.70
2022,04,25,13,49,12.60
2022,04,25,13,50,12.70
2022,04,25,13,51,12.70
2022,04,25,13,52,12.80
2022,04,25,13,53,12.90
2022,04,25,13,54,12.90
2022,04,25,13,55,12.90
2022,04,25,13,56,12.90
2022,04,25,13,57,12.70
2022,04,25,13,58,12.70
2022,04,25,13,59,12.60
2022,04,25,14,00,12.60
2022,04,25,14,01,12.60
2022,04,25,14,02,12.60
2022,04,25,14,03,12.70
2022,04,25,14,04,12.70
2022,04,25,14,05,12.70
2022,04,25,14,06,12.70
2022,04,25,14,07,12.60
2022,04,25,14,08,12.70
2022,04,25,14,09,12.70
2022,04,25,14,10,12.80
2022,04,25,14,11,12.80
2022,04,25,14,12,12.80
2022,04,25,14,13,12.80
2022,04,25,14,14,12.70
2022,04,25,14,15,12.70
2022,04,25,14,16,12.70
2022,04,25,14,17,12.80
2022,04,25,14,18,12.80
2022,04,25,14,19,12.80
2022,04,25,14,20,12.80
2022,04,25,14,21,12.80
2022,04,25,14,22,12.90
2022,04,25,14,23,12.90
2022,04,25,14,24,12.90
2022,04,25,14,25,13.00
2022,04,25,14,26,12.90
2022,04,25,14,27,12.90
2022,04,25,14,28,12.80
2022,04,25,14,29,12.80
2022,04,25,14,30,12.80
2022,04,25,14,31,12.70
2022,04,25,14,32,12.80
2022,04,25,14,33,12.90
2022,04,25,14,34,12.90
2022,04,25,14,35,13.00
2022,04,25,14,36,12.90
2022,04,25,14,37,12.90
2022,04,25,14,38,12.90
2022,04,25,14,39,12.90
2022,04,25,14,40,13.00
2022,04,25,14,41,13.00
2022,04,25,14,42,13.10
2022,04,25,14,43,13.20
2022,04,25,14,44,13.30
2022,04,25,14,45,13.30
2022,04,25,14,46,13.30
2022,04,25,14,47,13.20
2022,04,25,14,48,13.20
2022,04,25,14,49,13.20
2022,04,25,14,50,13.20
2022,04,25,14,51,13.10
2022,04,25,14,52,13.00
2022,04,25,14,53,12.90
2022,04,25,14,54,12.80
2022,04,25,14,55,12.70
2022,04,25,14,56,12.70
2022,04,25,14,57,12.70
2022,04,25,14,58,12.70
2022,04,25,14,59,12.60
2022,04,25,15,00,12.50
2022,04,25,15,01,12.40
2022,04,25,15,02,12.30
2022,04,25,15,03,12.30
2022,04,25,15,04,12.30
2022,04,25,15,05,12.30
2022,04,25,15,06,12.20
2022,04,25,15,07,12.10
2022,04,25,15,08,12.00
2022,04,25,15,09,11.90
2022,04,25,15,10,11.90
2022,04,25,15,11,11.90
2022,04,25,15,12,11.90
2022,04,25,15,13,11.90
2022,04,25,15,14,11.90
2022,04,25,15,15,12.00
2022,04,25,15,16,12.00
2022,04,25,15,17,12.00
2022,04,25,15,18,12.00
2022,04,25,15,19,12.10
2022,04,25,15,20,12.10
2022,04,25,15,21,12.10
2022,04,25,15,22,12.10
2022,04,25,15,23,12.10
2022,04,25,15,24,12.10
2022,04,25,15,25,12.10
2022,04,25,15,26,12.00
2022,04,25,15,27,12.00
2022,04,25,15,28,11.90
2022,04,25,15,29,11.90
2022,04,25,15,30,12.00
2022,04,25,15,31,12.00
2022,04,25,15,32,12.00
2022,04,25,15,33,12.00
2022,04,25,15,34,12.10
2022,04,25,15,35,12.10
2022,04,25,15,36,12.10
2022,04,25,15,37,12.10
2022,04,25,15,38,12.10
2022,04,25,15,39,12.20
2022,04,25,15,40,12.20
2022,04,25,15,41,12.30
2022,04,25,15,42,12.30
2022,04,25,15,43,12.30
2022,04,25,15,44,12.30
2022,04,25,15,45,12.40
2022,04,25,15,46,12.40
2022,04,25,15,47,12.40
2022,04,25,15,48,12.40
2022,04,25,15,49,12.40
2022,04,25,15,50,12.40
2022,04,25,15,51,12.40
2022,04,25,15,52,12.50
2022,04,25,15,53,12.40
2022,04,25,15,54,12.40
2022,04,25,15,55,12.40
2022,04,25,15,56,12.40
2022,04,25,15,57,12.40
2022,04,25,15,58,12.30
2022,04,25,15,59,12.30
2022,04,25,16,00,12.20
2022,04,25,16,01,12.10
2022,04,25,16,02,12.10
2022,04,25,16,03,12.10
2022,04,25,16,04,12.10
2022,04,25,16,05,12.10
2022,04,25,16,06,12.00
2022,04,25,16,07,12.00
2022,04,25,16,08,12.00
2022,04,25,16,09,11.90
2022,04,25,16,10,11.90
2022,04,25,16,11,11.90
2022,04,25,16,12,11.90
2022,04,25,16,13,11.90
2022,04,25,16,14,11.90
2022,04,25,16,15,11.90
2022,04,25,16,16,11.90
2022,04,25,16,17,11.90
2022,04,25,16,18,11.90
2022,04,25,16,19,12.00
2022,04,25,16,20,12.10
2022,04,25,16,21,12.10
2022,04,25,16,22,12.20
2022,04,25,16,23,12.20
2022,04,25,16,24,12.30
2022,04,25,16,25,12.30
2022,04,25,16,26,12.40
2022,04,25,16,27,12.50
2022,04,25,16,28,12.60
2022,04,25,16,29,12.70
2022,04,25,16,30,12.70
2022,04,25,16,31,12.70
2022,04,25,16,32,12.70
2022,04,25,16,33,12.70
2022,04,25,16,34,12.70
2022,04,25,16,35,12.70
2022,04,25,16,36,12.70
2022,04,25,16,37,12.70
2022,04,25,16,38,12.80
2022,04,25,16,39,12.80
2022,04,25,16,40,12.70
2022,04,25,16,41,12.70
2022,04,25,16,42,12.60
2022,04,25,16,43,12.40
2022,04,25,16,44,12.30
2022,04,25,16,45,12.30
2022,04,25,16,46,12.30
2022,04,25,16,47,12.30
2022,04,25,16,48,12.30
2022,04,25,16,49,12.30
2022,04,25,16,50,12.20
2022,04,25,16,51,12.20
2022,04,25,16,52,12.10
2022,04,25,16,53,12.00
2022,04,25,16,54,12.00
2022,04,25,16,55,12.00
2022,04,25,16,56,12.00
2022,04,25,16,57,11.90
2022,04,25,16,58,11.90
2022,04,25,16,59,11.90
2022,04,25,17,00,11.90
2022,04,25,17,01,11.90
2022,04,25,17,02,11.90
2022,04,25,17,03,11.90
2022,04,25,17,04,11.90
2022,04,25,17,05,11.80
2022,04,25,17,06,11.80
2022,04,25,17,07,11.80
2022,04,25,17,08,11.80
2022,04,25,17,09,11.80
2022,04,25,17,10,11.80
2022,04,25,17,11,11.90
2022,04,25,17,12,11.90
2022,04,25,17,13,11.90
2022,04,25,17,14,11.90
2022,04,25,17,15,11.80
2022,04,25,17,16,11.80
2022,04,25,17,17,11.70
2022,04,25,17,18,11.70
2022,04,25,17,19,11.60
2022,04,25,17,20,11.60
2022,04,25,17,21,11.60
2022,04,25,17,22,11.60
2022,04,25,17,23,11.60
2022,04,25,17,24,11.60
2022,04,25,17,25,11.60
2022,04,25,17,26,11.60
2022,04,25,17,27,11.60
2022,04,25,17,28,11.60
2022,04,25,17,29,11.60
2022,04,25,17,30,11.60
2022,04,25,17,31,11.50
2022,04,25,17,32,11.50
2022,04,25,17,33,11.50
2022,04,25,17,34,11.50
2022,04,25,17,35,11.50
2022,04,25,17,36,11.40
2022,04,25,17,37,11.40
2022,04,25,17,38,11.40
2022,04,25,17,39,11.30
2022,04,25,17,40,11.30
2022,04,25,17,41,11.30
2022,04,25,17,42,11.30
2022,04,25,17,43,11.30
2022,04,25,17,44,11.30
2022,04,25,17,45,11.30
2022,04,25,17,46,11.40
2022,04,25,17,47,11.40
2022,04,25,17,48,11.40
2022,04,25,17,49,11.40
2022,04,25,17,50,11.40
2022,04,25,17,51,11.40
2022,04,25,17,52,11.40